• Join FlightAware (Why Join?)
  • Login
  • US Flag 
05:05PM EST


 

Airport Tracker/Info


-or-


 

Live Flight TrackerFlight Track Log ✈ AAL731 ✈ 05-May-2012 ✈ KLGA - KDFW

Flight Track Log - Related Links

Times and Time Zones

All times are in EDT time to prevent confusion due to time zone crossing. See the AAL731 flight status page for this flight to view local times or setup timezone preferences in your user account.

Time Position Orientation Groundspeed Altitude Reporting Facility
EDT Latitude Longitude Course Direction KTS MPH feet Rate Location/Type
11:50AM 40.7710 -74.0963 96° East  Level FlightAware Approximate
11:50AM 40.7500 -73.8167 13° North 176 203 2,100  Level New York TRACON
11:51AM 40.7834 -74.2406 79° East  Level FlightAware Approximate
11:52AM 40.8497 -73.7867 308° West 269 310 7,600  Level FlightAware ADS-B
11:53AM 40.8610 -73.8060 307° West 268 308 8,500 3,375 Climbing FlightAware ADS-B
11:53AM 40.8739 -73.8285 302° West 272 313 9,400 3,000 Climbing FlightAware ADS-B
11:53AM 40.8811 -73.8437 292° West 281 323 9,900 3,000 Climbing FlightAware ADS-B
11:53AM 40.8818 -73.8460 285° West 281 323 10,000 3,500 Climbing FlightAware ADS-B
11:53AM 40.8855 -73.8649 360° North 283 326 10,600 3,273 Climbing FlightAware ADS-B
11:53AM 40.8855 -73.8649 269° West 283 326 10,600 1,636 Level FlightAware ADS-B
11:53AM 40.8853 -73.8831 259° West 298 343 10,900 1,235 Climbing FlightAware ADS-B
11:54AM 40.8785 -73.9283 261° West 333 383 11,300 1,455 Climbing FlightAware ADS-B
11:54AM 40.8761 -73.9474 360° North 300 345 11,700 2,400 Climbing FlightAware ADS-B
11:54AM 40.8761 -73.9474 263° West 340 391 11,700 3,529 Level FlightAware ADS-B
11:54AM 40.8728 -73.9822 265° West 339 390 12,700 3,643 Climbing FlightAware ADS-B
11:54AM 40.8711 -74.0067 266° West 339 390 13,400 2,780 Climbing FlightAware ADS-B
11:55AM 40.8677 -74.0686 267° West 351 404 14,600 2,516 Climbing FlightAware ADS-B
11:55AM 40.8676 -74.0711 266° West 353 406 14,700 581 Climbing FlightAware ADS-B
11:55AM 40.8638 -74.1375 266° West 358 412 14,900 194 Climbing FlightAware ADS-B
11:56AM 40.8598 -74.2054 265° West 357 411 14,900  Level FlightAware ADS-B
11:56AM 40.8557 -74.2716 265° West 355 409 14,900  Level FlightAware ADS-B
11:57AM 40.8517 -74.3372 266° West 355 409 14,900 857 Level FlightAware ADS-B
11:58AM 40.8477 -74.4073 266° West 359 413 15,800 1,905 Climbing FlightAware ADS-B
11:58AM 40.8437 -74.4756 265° West 366 421 16,900 1,082 Climbing FlightAware ADS-B
11:59AM 40.8396 -74.5432 265° West 367 422 16,900  Level FlightAware ADS-B
11:59AM 40.8354 -74.6121 265° West 366 421 16,900 194 Level FlightAware ADS-B
12:00PM 40.8312 -74.6806 265° West 366 421 17,100 1,065 Climbing FlightAware ADS-B
12:00PM 40.8269 -74.7508 265° West 379 436 18,000 2,129 Climbing FlightAware ADS-B
12:01PM 40.8223 -74.8243 265° West 386 444 19,300 2,571 Climbing FlightAware ADS-B
12:01PM 40.8176 -74.8970 265° West 386 444 20,700 2,710 Climbing FlightAware ADS-B
12:02PM 40.8131 -74.9688 265° West 387 445 22,100 2,500 Climbing FlightAware ADS-B
12:02PM 40.8085 -75.0401 265° West 390 449 23,200 2,100 Climbing FlightAware ADS-B
12:03PM 40.8037 -75.1122 263° West 395 455 24,200 2,053 Climbing FlightAware ADS-B
12:03PM 40.8019 -75.1306 259° West 396 456 24,500 1,231 Climbing FlightAware ADS-B
12:03PM 40.7915 -75.2030 259° West 398 458 25,000 1,180 Climbing FlightAware ADS-B
12:04PM 40.7811 -75.2751 259° West 398 458 25,700 1,368 Climbing FlightAware ADS-B
12:04PM 40.7715 -75.3401 254° West 407 468 26,300 1,227 Climbing FlightAware ADS-B
12:05PM 40.7626 -75.3824 248° West 414 476 26,600 1,200 Climbing FlightAware ADS-B
12:05PM 40.7501 -75.4238 244° Southwest 421 484 27,000 1,375 Climbing FlightAware ADS-B
12:05PM 40.7240 -75.4941 244° Southwest 430 495 27,700 1,000 Climbing FlightAware ADS-B
12:06PM 40.6975 -75.5649 244° Southwest 432 497 28,000 290 Climbing FlightAware ADS-B
12:06PM 40.6698 -75.6385 244° Southwest 429 494 28,000  Level FlightAware ADS-B
12:07PM 40.6436 -75.7083 244° Southwest 429 494 28,000 590 Level FlightAware ADS-B
12:07PM 40.6160 -75.7815 244° Southwest 434 499 28,600 1,258 Climbing FlightAware ADS-B
12:08PM 40.5881 -75.8556 243° Southwest 439 505 29,300 1,548 Climbing FlightAware ADS-B
12:08PM 40.5595 -75.9308 244° Southwest 438 504 30,200 1,759 Climbing FlightAware ADS-B
12:09PM 40.5360 -75.9938 252° West 437 503 31,000 1,846 Climbing FlightAware ADS-B
12:09PM 40.5284 -76.0253 254° West 431 496 31,400 1,535 Climbing FlightAware ADS-B
12:10PM 40.5119 -76.1022 254° West 431 496 32,100 1,569 Climbing FlightAware ADS-B
12:10PM 40.4935 -76.1886 254° West 428 493 33,100 1,754 Climbing FlightAware ADS-B
12:11PM 40.4771 -76.2639 254° West 424 488 34,000 1,548 Climbing FlightAware ADS-B
12:11PM 40.4602 -76.3394 253° West 421 484 34,700 984 Climbing FlightAware ADS-B
12:12PM 40.4431 -76.4146 254° West 420 483 35,000 286 Climbing FlightAware ADS-B
12:12PM 40.4253 -76.4937 253° West 420 483 35,000  Level FlightAware ADS-B
12:13PM 40.4088 -76.5667 253° West 419 482 35,000  Level FlightAware ADS-B
12:13PM 40.3984 -76.6127 254° West 418 481 35,000 471 Level FlightAware ADS-B
12:14PM 40.3808 -76.6917 253° West 417 480 35,400 1,219 Climbing FlightAware ADS-B
12:14PM 40.3635 -76.7681 255° West 410 472 36,300 1,524 Climbing FlightAware ADS-B
12:15PM 40.3490 -76.8405 267° West 408 470 37,000 1,200 Climbing FlightAware ADS-B
12:15PM 40.3472 -76.8852 270° West 395 455 37,300 980 Climbing FlightAware ADS-B
12:15PM 40.3471 -76.9576 269° West 395 455 37,800 656 Climbing FlightAware ADS-B
12:16PM 40.3459 -77.0383 269° West 396 456 38,000 179 Climbing FlightAware ADS-B
12:17PM 40.3445 -77.1191 268° West 400 460 38,000  Level FlightAware ADS-B
12:17PM 40.3406 -77.2414 269° West 403 464 38,000  Level New York Center
12:18PM 40.3389 -77.3856 268° West 403 464 38,000  Level New York Center
12:21PM 40.3297 -77.7397 269° West 390 449 38,000  Level Cleveland Center
12:22PM 40.3272 -77.8869 269° West 395 455 38,000  Level Cleveland Center
12:23PM 40.3244 -78.0394 266° West 412 474 38,000  Level Cleveland Center
12:24PM 40.3172 -78.1869 268° West 417 480 38,000  Level Cleveland Center
12:25PM 40.3139 -78.3394 268° West 417 480 38,000  Level Cleveland Center
12:26PM 40.3106 -78.4894 267° West 422 486 38,000  Level Cleveland Center
12:27PM 40.3050 -78.6392 269° West 422 486 38,000  Level Cleveland Center
12:28PM 40.3033 -78.7889 267° West 422 486 38,000  Level Cleveland Center
12:29PM 40.2972 -78.9389 268° West 422 486 38,000  Level Cleveland Center
12:30PM 40.2931 -79.0886 267° West 422 486 38,000  Level Cleveland Center
12:31PM 40.2864 -79.2386 269° West 422 486 38,000  Level Cleveland Center
12:32PM 40.2839 -79.3719 268° West 422 486 38,000  Level Cleveland Center
12:33PM 40.2792 -79.5244 267° West 422 486 38,000  Level Cleveland Center
12:34PM 40.2742 -79.6714 266° West 422 486 38,000  Level Cleveland Center
12:35PM 40.2669 -79.8239 266° West 422 486 38,000  Level Cleveland Center
12:36PM 40.2594 -79.9736 267° West 422 486 38,000  Level Cleveland Center
12:37PM 40.2539 -80.1314 267° West 422 486 38,000  Level Cleveland Center
12:38PM 40.2461 -80.3031 268° West 427 491 38,000  Level Cleveland Center
12:39PM 40.2422 -80.4553 266° West 427 491 38,000  Level Cleveland Center
12:40PM 40.2339 -80.6047 266° West 427 491 38,000  Level Cleveland Center
12:41PM 40.2256 -80.7597 266° West 422 486 38,000  Level Cleveland Center
12:43PM 40.2117 -81.0372 266° West 425 489 38,000  Level Indianapolis Center
12:44PM 40.2025 -81.1925 266° West 425 489 38,000  Level Indianapolis Center
12:45PM 40.1947 -81.3314 266° West 425 489 38,000  Level Indianapolis Center
12:46PM 40.1869 -81.4836 265° West 425 489 38,000  Level Indianapolis Center
12:47PM 40.1772 -81.6361 267° West 425 489 38,000  Level Indianapolis Center
12:48PM 40.1694 -81.8047 266° West 425 489 38,000 -50 Level Indianapolis Center
12:49PM 40.1611 -81.9600 265° West 425 489 37,900 -250 Descending Indianapolis Center
12:50PM 40.1506 -82.1122 249° West 425 489 37,500 -500 Descending Indianapolis Center
12:51PM 40.1064 -82.2597 248° West 425 489 36,900 -250 Descending Indianapolis Center
12:52PM 40.0600 -82.4069 247° West 438 504 37,000 50 Climbing Indianapolis Center
12:53PM 40.0175 -82.5350 247° West 438 504 37,000  Level Indianapolis Center
12:54PM 39.9706 -82.6819 247° West 443 510 37,000  Level Indianapolis Center
12:55PM 39.9217 -82.8289 247° West 443 510 37,000 -50 Level Indianapolis Center
12:56PM 39.8744 -82.9756 245° Southwest 443 510 36,900 350 Descending Indianapolis Center
12:57PM 39.8250 -83.1164 246° West 434 499 37,700 550 Climbing Indianapolis Center
12:58PM 39.7733 -83.2706 247° West 434 499 38,000 150 Climbing Indianapolis Center
12:59PM 39.7256 -83.4167 245° Southwest 434 499 38,000  Level Indianapolis Center
01:00PM 39.6736 -83.5625 248° West 442 509 38,000  Level Indianapolis Center
01:01PM 39.6278 -83.7106 247° West 442 509 38,000  Level Indianapolis Center
01:02PM 39.5836 -83.8425 247° West 442 509 38,000  Level Indianapolis Center
01:03PM 39.5353 -83.9878 246° West 442 509 38,000  Level Indianapolis Center
01:04PM 39.4847 -84.1356 246° West 442 509 38,000 -50 Level Indianapolis Center
01:05PM 39.4358 -84.2775 246° West 442 509 37,900  Descending Indianapolis Center
01:06PM 39.3847 -84.4275 247° West 442 509 38,000 50 Climbing Indianapolis Center
01:07PM 39.3356 -84.5744 245° Southwest 442 509 38,000 -50 Level Indianapolis Center
01:08PM 39.2781 -84.7319 247° West 442 509 37,900  Descending Indianapolis Center
01:09PM 39.2306 -84.8786 245° Southwest 442 509 38,000 50 Climbing Indianapolis Center
01:10PM 39.1853 -85.0036 245° Southwest 435 501 38,000  Level Indianapolis Center
01:11PM 39.1289 -85.1606 246° West 440 506 38,000  Level Indianapolis Center
01:12PM 39.0789 -85.3039 245° Southwest 440 506 38,000  Level Indianapolis Center
01:13PM 39.0267 -85.4469 245° Southwest 440 506 38,000 -450 Level Indianapolis Center
01:14PM 38.9744 -85.5897 246° West 440 506 37,100 -942 Descending Indianapolis Center
01:15PM 38.9258 -85.7297 245° Southwest 440 506 36,100 -950 Descending Indianapolis Center
01:16PM 38.8753 -85.8697 248° West 440 506 35,200 -900 Descending Indianapolis Center
01:17PM 38.8353 -85.9936 244° Southwest 435 501 34,300 -600 Descending Indianapolis Center
01:18PM 38.7822 -86.1358 244° Southwest 435 501 34,000 -150 Descending Indianapolis Center
01:19PM 38.7289 -86.2778 245° Southwest 435 501 34,000  Level Indianapolis Center
01:20PM 38.6775 -86.4219 244° Southwest 440 506 34,000  Level Indianapolis Center
01:21PM 38.6261 -86.5583 245° Southwest 434 499 34,000  Level Indianapolis Center
01:22PM 38.5747 -86.6969 244° Southwest 434 499 34,000  Level Indianapolis Center
01:23PM 38.5228 -86.8356 246° West 441 507 34,000  Level Indianapolis Center
01:24PM 38.4731 -86.9764 242° Southwest 441 507 34,000  Level Indianapolis Center
01:25PM 38.4078 -87.1325 248° West 441 507 34,000 -100 Level Indianapolis Center
01:26PM 38.3661 -87.2656 242° Southwest 453 521 33,800 -600 Descending Indianapolis Center
01:27PM 38.3097 -87.4028 244° Southwest 453 521 32,800 -1,000 Descending Indianapolis Center
01:28PM 38.2547 -87.5481 244° Southwest 453 521 31,800 -950 Descending Indianapolis Center
01:29PM 38.1997 -87.6906 243° Southwest 453 521 30,900 -900 Descending Indianapolis Center
01:30PM 38.1400 -87.8403 244° Southwest 458 527 30,000 -320 Descending Indianapolis Center
01:32PM 38.0339 -88.1147 243° Southwest 493 567 30,000  Level Kansas City Center
01:33PM 37.9747 -88.2594 245° Southwest 487 560 30,000  Level Kansas City Center
01:34PM 37.9181 -88.4117 243° Southwest 487 560 30,000  Level Kansas City Center
01:35PM 37.8586 -88.5611 244° Southwest 487 560 30,000  Level Kansas City Center
01:36PM 37.8014 -88.7103 244° Southwest 487 560 30,000  Level Kansas City Center
01:37PM 37.7439 -88.8567 244° Southwest 481 554 30,000  Level Kansas City Center
01:38PM 37.6842 -89.0081 243° Southwest 481 554 30,000  Level Kansas City Center
01:39PM 37.6261 -89.1539 244° Southwest 481 554 30,000  Level Kansas City Center
01:40PM 37.5700 -89.2994 242° Southwest 476 548 30,000  Level Kansas City Center
01:41PM 37.5075 -89.4453 243° Southwest 471 542 30,000  Level Kansas City Center
01:43PM 37.3661 -89.7906 242° Southwest 467 537 30,000  Level Memphis Center
01:44PM 37.3042 -89.9372 241° Southwest 467 537 30,000  Level Memphis Center
01:45PM 37.2400 -90.0806 226° Southwest 467 537 30,000  Level Memphis Center
01:46PM 37.1486 -90.1981 226° Southwest 472 543 30,000  Level Memphis Center
01:47PM 37.0547 -90.3178 224° Southwest 477 549 30,000  Level Memphis Center
01:48PM 36.9569 -90.4347 225° Southwest 482 555 30,000  Level Memphis Center
01:49PM 36.8631 -90.5539 223° Southwest 487 560 30,000  Level Memphis Center
01:50PM 36.7628 -90.6703 225° Southwest 487 560 30,000  Level Memphis Center
01:51PM 36.6686 -90.7864 223° Southwest 487 560 30,000  Level Memphis Center
01:52PM 36.5703 -90.9022 225° Southwest 487 560 30,000  Level Memphis Center
01:53PM 36.4758 -91.0203 224° Southwest 487 560 30,000  Level Memphis Center
01:54PM 36.3772 -91.1381 225° Southwest 487 560 30,000  Level Memphis Center
01:55PM 36.2847 -91.2531 223° Southwest 487 560 30,000  Level Memphis Center
01:56PM 36.1881 -91.3650 222° Southwest 482 555 30,000  Level Memphis Center
01:57PM 36.0933 -91.4717 225° Southwest 477 549 30,000  Level Memphis Center
01:58PM 36.0047 -91.5808 224° Southwest 472 543 30,000  Level Memphis Center
01:59PM 35.9139 -91.6897 226° Southwest 467 537 30,000  Level Memphis Center
02:00PM 35.8272 -91.8011 234° Southwest 456 525 30,000  Level Memphis Center
02:01PM 35.7506 -91.9328 232° Southwest 464 534 30,000  Level Memphis Center
02:02PM 35.6717 -92.0589 227° Southwest 469 540 30,000  Level Memphis Center
02:03PM 35.5844 -92.1747 222° Southwest 474 545 30,000  Level Memphis Center
02:04PM 35.4869 -92.2822 221° Southwest 474 545 30,000  Level Memphis Center
02:05PM 35.3894 -92.3869 221° Southwest 469 540 30,000  Level Memphis Center
02:06PM 35.2917 -92.4914 222° Southwest 474 545 30,000  Level Memphis Center
02:07PM 35.1917 -92.6006 221° Southwest 474 545 30,000  Level Memphis Center
02:08PM 35.0939 -92.7047 221° Southwest 474 545 30,000  Level Memphis Center
02:09PM 35.0044 -92.7983 222° Southwest 474 545 30,000  Level Memphis Center
02:10PM 34.9042 -92.9069 221° Southwest 474 545 30,000  Level Memphis Center
02:12PM 34.7058 -93.1158 222° Southwest 474 545 30,000  Level Memphis Center
02:13PM 34.6053 -93.2261 220° Southwest 474 545 30,000  Level Memphis Center
02:14PM 34.5006 -93.3308 223° Southwest 479 551 30,000  Level Memphis Center
02:15PM 34.3303 -93.5256 247° West 499 574 30,000  Level Fort Worth Center
02:16PM 34.2803 -93.6661 252° West 469 540 30,000  Level Fort Worth Center
02:17PM 34.2408 -93.8161 251° West 469 540 30,000  Level Fort Worth Center
02:18PM 34.1972 -93.9711 252° West 474 545 30,000 -200 Level Fort Worth Center
02:19PM 34.1553 -94.1233 250° West 479 551 29,600 -800 Descending Fort Worth Center
02:20PM 34.1131 -94.2653 251° West 474 545 28,400 -1,100 Descending Fort Worth Center
02:21PM 34.0747 -94.4019 251° West 454 522 27,400 -1,000 Descending Fort Worth Center
02:22PM 34.0361 -94.5364 251° West 442 509 26,400 -1,050 Descending Fort Worth Center
02:23PM 33.9994 -94.6678 250° West 431 496 25,300 -1,050 Descending Fort Worth Center
02:24PM 33.9603 -94.7967 252° West 424 488 24,300 -650 Descending Fort Worth Center
02:25PM 33.9275 -94.9178 250° West 406 467 24,000 -150 Descending Fort Worth Center
02:26PM 33.8903 -95.0414 248° West 399 459 24,000  Level Fort Worth Center
02:27PM 33.8486 -95.1678 246° West 399 459 24,000  Level Fort Worth Center
02:28PM 33.8008 -95.2964 246° West 405 466 24,000  Level Fort Worth Center
02:29PM 33.7508 -95.4300 248° West 423 487 24,000  Level Fort Worth Center
02:30PM 33.7069 -95.5633 248° West 429 494 24,000 -900 Level Fort Worth Center
02:31PM 33.6669 -95.6814 246° West 429 494 22,200 -2,100 Descending Fort Worth Center
02:32PM 33.6144 -95.8197 247° West 424 488 19,800 -2,400 Descending Fort Worth Center
02:33PM 33.5742 -95.9325 244° Southwest 417 480 17,400 -2,050 Descending Fort Worth Center
02:34PM 33.5272 -96.0481 247° West 385 443 15,700 -1,600 Descending Fort Worth Center
02:35PM 33.4950 -96.1406 254° West 346 398 14,200 -1,545 Descending Fort Worth Center
02:36PM 33.4758 -96.2183 245° Southwest 325 374 13,100 -1,630 Descending FAA TRACON SMA TRACON (SMA)
02:37PM 33.4503 -96.2847 246° West 318 366 12,000 -1,425 Descending FAA TRACON SMA TRACON (SMA)
02:37PM 33.4256 -96.3497 241° Southwest 309 356 11,200 -750 Descending FAA TRACON SMA TRACON (SMA)
02:38PM 33.4022 -96.4011 227° Southwest 288 331 11,000 -150 Descending FAA TRACON SMA TRACON (SMA)
02:39PM 33.3647 -96.4486 210° Southwest 281 323 11,000 -76 Level FAA TRACON SMA TRACON (SMA)
02:39PM 33.3239 -96.4767 202° Southwest 282 325 10,900 -519 Descending FAA TRACON SMA TRACON (SMA)
02:40PM 33.2750 -96.5003 224° Southwest 271 312 10,300 -815 Descending FAA TRACON SMA TRACON (SMA)
02:41PM 33.2431 -96.5378 284° West 244 281 9,800 -911 Descending FAA TRACON SMA TRACON (SMA)
02:41PM 33.2539 -96.5917 286° West 247 284 9,100 -1,125 Descending FAA TRACON SMA TRACON (SMA)
02:42PM 33.2661 -96.6425 267° West 241 277 8,300 -1,125 Descending FAA TRACON SMA TRACON (SMA)
02:43PM 33.2642 -96.6917 245° Southwest 238 274 7,600 -1,125 Descending FAA TRACON SMA TRACON (SMA)
02:43PM 33.2453 -96.7403 246° West 236 272 6,800 -1,125 Descending FAA TRACON SMA TRACON (SMA)
02:44PM 33.2275 -96.7883 246° West 236 272 6,100 -825 Descending FAA TRACON SMA TRACON (SMA)
02:45PM 33.2114 -96.8314 246° West 230 265 5,700 -825 Descending FAA TRACON SMA TRACON (SMA)
02:45PM 33.1936 -96.8792 247° West 229 264 5,000 -525 Descending FAA TRACON SMA TRACON (SMA)
02:46PM 33.1764 -96.9283 246° West 229 264 5,000  Level FAA TRACON SMA TRACON (SMA)
02:47PM 33.1611 -96.9703 212° Southwest 226 260 5,000 -225 Level FAA TRACON SMA TRACON (SMA)
02:47PM 33.1261 -96.9967 197° South 219 252 4,700 -675 Descending FAA TRACON SMA TRACON (SMA)
02:48PM 33.0922 -97.0092 197° South 205 236 4,100 -900 Descending FAA TRACON SMA TRACON (SMA)